www.pogodaiklimat.ru

Погода и климат >> Архив погоды >> Россия >> Амурская область >> Свободный


АРХИВ ПОГОДЫ в Свободном

Время (UTC), дата Ветер
(напр.,м/с)
 
Видим.   Явления Облачность Т
(С)
Тd
(С)
f
(%)
Тe
(С)
Тes
(С)
Комфортность P
(гПа)
Po
(гПа)
Тmin
(С)
Tmax
(С)
R
(мм)
R24
(мм)
S
(см)
21 15.08 С 1 н/о н/о +16.7 +16.0 96 +18 +18 1003.4 980.2
00 16.08 С 3 50 км 6/0
[Ac trans]
+18.5 +14.9 80 +19 +23 1003.1 980.1 +16.4
03 16.08 СВ 3 н/о н/о +21.1 +14.0 64 +24 +24 комфорт 1002.2 979.4
06 16.08 СВ 3 н/о н/о +21.0 +14.3 66 +24 +24 комфорт 1001.3 978.5
09 16.08 СВ 3 н/о н/о +18.8 +13.2 70 +20 +20 1000.8 977.8
12 16.08 С 3 8000 м слаб. ливневой дождь 10/10 1000 м
[Cb calv]
+16.0 +14.1 88 +16 +16 1000.7 977.5 +22.0 0.3
15 16.08 С 2 н/о н/о +14.6 +13.6 94 +14 +14 999.4 976.1
18 16.08 СВ 2 н/о н/о +13.8 +13.0 95 +13 +13 998.1 974.8
21 16.08 С 2 н/о н/о +13.2 +12.5 96 +12 +12 997.7 974.3
00 17.08 С 2 4000 м дождь 10/10 200 м
[]
+13.9 +13.1 95 +13 +13 997.5 974.2 +13.1 11
03 17.08 В 1 н/о н/о +16.4 +15.3 93 +17 +17 997.3 974.2
06 17.08 СВ 2 н/о н/о +16.5 +15.5 94 +17 +17 997.3 974.2
09 17.08 В 2 н/о н/о +16.1 +15.1 94 +16 +16 998.1 975.0
12 17.08 В 1 6000 м слаб. ливневой дождь 10/10 300 м
[Cb calv]
+14.7 +13.9 95 +15 +15 999.7 976.5 +17.2 8
15 17.08 В 2 н/о н/о +13.2 +12.4 95 +12 +12 1000.6 977.2
18 17.08 СВ 2 н/о н/о +12.4 +11.7 95 +11 +11 1001.0 977.5
21 17.08 СВ 1 н/о н/о +11.9 +11.2 95 +12 +12 1001.8 978.2
00 18.08 СВ 2 50 км {дождь} 10/10 300 м
[St]
+12.4 +11.5 94 +11 +11 1002.7 979.2 +11.9 7
03 18.08 С 2 н/о н/о +13.5 +12.1 91 +13 +13 1003.7 980.3
06 18.08 С 1 н/о н/о +14.1 +12.7 91 +14 +14 1004.2 980.8
09 18.08 СЗ 1 н/о н/о +13.8 +12.1 89 +14 +14 1005.2 981.7
12 18.08 СЗ 1 50 км {дождь} 10/10 1000 м
[Sc]
+12.7 +11.4 92 +13 +13 1006.4 982.8 +14.3 0.6
15 18.08 СЗ 2 н/о н/о +12.3 +11.4 94 +11 +11 1007.1 983.4
18 18.08 СЗ 2 н/о н/о +12.3 +11.3 94 +11 +11 1007.7 984.1
21 18.08 СЗ 2 н/о н/о +12.3 +11.0 92 +11 +11 1008.9 985.2
00 19.08 СЗ 3 50 км 8/8 600 м
[Cb calv]
+14.1 +11.4 84 +13 +14 1009.8 986.2 +12.1 0.5
03 19.08 З 3 н/о н/о +16.5 +12.1 75 +16 +16 1009.9 986.5
06 19.08 СЗ 2 н/о н/о +17.7 +12.3 71 +18 +18 1010.4 987.1
09 19.08 З 4 н/о н/о +15.7 +11.9 78 +15 +15 1011.2 987.7
12 19.08 З 1 50 км 6/6 600 м
[Sc]
+13.3 +12.3 94 +13 +13 1012.3 988.6 +17.7
15 19.08 З 1 н/о н/о +13.5 +11.8 89 +14 +14 1012.6 988.9
18 19.08 З 1 н/о н/о +13.0 +11.9 93 +13 +13 1012.9 989.2
21 19.08 штиль 0 н/о н/о +12.4 +11.5 94 +12 +12 1012.8 989.1
00 20.08 Ю 1 50 км 10/4 600 м
[Cu med, cong Ci fib]
+17.1 +11.4 69 +18 +22 1012.4 989.0 +12.2
03 20.08 ЮВ 1 н/о н/о +18.9 +10.8 59 +21 +21 комфорт 1011.9 988.7
06 20.08 В 1 н/о н/о +19.8 +11.5 59 +22 +22 комфорт 1010.8 987.7
09 20.08 В 1 н/о н/о +18.4 +12.0 66 +20 +20 1010.4 987.2
12 20.08 штиль 0 50 км 10/0
[Ac As Ci fib]
+13.3 +12.3 94 +13 +13 1010.8 987.1 +20.6
15 20.08 штиль 0 н/о н/о +12.6 +11.9 95 +12 +12 1010.2 986.5
18 20.08 В 1 н/о н/о +12.9 +12.1 95 +13 +13 1009.2 985.5
21 20.08 В 1 н/о н/о +13.3 +12.3 94 +13 +13 1008.3 984.7
00 21.08 В 2 50 км 9/0
[Ac As]
+17.7 +13.4 76 +18 +20 1007.5 984.2 +12.1
03 21.08 В 2 н/о н/о +21.0 +14.7 67 +25 +25 комфорт 1006.0 983.1
06 21.08 В 2 н/о н/о +22.2 +15.0 64 +26 +26 душно 1004.9 982.1
09 21.08 В 1 н/о н/о +20.4 +14.7 70 +24 +24 комфорт 1005.5 982.5
12 21.08 В 2 50 км 9/0
[Ac As]
+19.3 +14.7 75 +21 +21 комфорт 1006.1 983.0 +22.6
15 21.08 СВ 2 н/о н/о +17.9 +14.6 81 +18 +18 1006.6 983.4
18 21.08 СВ 2 н/о н/о +17.1 +14.5 85 +17 +17 1006.6 983.4
21 21.08 СВ 2 н/о н/о +16.5 +13.3 81 +17 +17 1007.1 983.8
00 22.08 СВ 3 50 км 10/3 1000 м
[Cb calv Ac und]
+17.4 +13.0 75 +17 +18 1007.9 984.7 +16.3
06 22.08 СВ 2 н/о н/о +19.4 +16.0 81 +22 +22 комфорт 1007.9 984.8
09 22.08 В 2 н/о н/о +18.9 +16.6 87 +21 +21 комфорт 1008.9 985.7
12 22.08 С 2 50 км {ливн. осадки} 10/4 1000 м
[Cb calv Ac und]
+17.5 +15.2 86 +18 +18 1010.2 986.9 +20.0 4
15 22.08 штиль 0 н/о н/о +16.2 +15.0 93 +16 +16 1011.2 987.8

 

Местоположение метеостанции Свободный (Амурская область, Россия): широта 51.45 долгота 128.10 высота над уровнем моря 200 м.

В архиве по умолчанию представлена погода в Свободном за последнюю неделю. Архивные данные за месяц целиком и за предыдущие месяцы, начиная с января 2011 года, Вы можете получить, выбрав интересующий диапазон дат из раскрывающегося списка и нажав кнопку "Ввод!".


*Определитесь, кто Вы:
робот инопланетянин человек

Внимание! Время в таблицах - всемирное. Для получения местного времени необходимо прибавить поправку, которая равна 9 ч.

Смотрите также архив погоды в соседних городах и на ближайших метеорологических станциях:

Погода в Мазаново (Амурская область, Россия) (52 км)
Погода в Белогорске (Амурская область, Россия) (63 км)
Погода в Шимановске (Амурская область, Россия) (68 км)
Погода в Саскале (Амурская область, Россия) (86 км)
Погода в Сергеевке (Амурская область, Россия) (93 км)
Погода в Хума (Хэйлунцзян, Китай) (105 км)
Погода в Братолюбовке (Амурская область, Россия) (112 км)
Погода в Екатеринославке (Амурская область, Россия) (136 км)
Погода в Благовещенске (Амурская область, Россия) (139 км)
Погода в Айгуне (Хэйлунцзян, Китай) (141 км)

Пояснения к столбцам:

Ветер - указаны скорость ветра в м/с - средняя за 10 мин, порывы в срок и между сроками (в фигурных скобках) и направление, откуда дует ветер: С - северный, СВ - северо-восточный, В - восточный, ЮВ - юго-восточный, Ю - южный, ЮЗ - юго-западный, З - западный, СЗ - северо-западный.
Видимость - горизонтальная дальность видимости в метрах или километрах. При видимости от 1 до 10 км при отсутствии осадков обычно наблюдается дымка, при ухудшении видимости до 1 км и менее - туман. В сухую погоду видимость может ухудшаться дымом, пылью или мглою.
Явления - указаны атмосферные явления, наблюдавшиеся в срок или в последний час перед сроком; фигурными скобками обозначены явления, наблюдавшиеся между сроками (за 1-3 часа до срока); квадратными скобками обозначены град или гололедные отложения с указанием их диаметра в мм.
Облачность - указаны через наклонную черту общая и нижняя облачность в баллах и высота нижней границы облаков в метрах; квадратными скобками обозначены формы облаков: Ci - перистые, Cs - перисто-слоистые, Cc - перисто-кучевые, Ac - высококучевые, As - высокослоистые, Sc - слоисто-кучевые, Ns - слоисто-дождевые, Cu - кучевые, Cb - кучево-дождевые. Подробнее классификацию облаков см. в Атласе облаков (PDF).
T - Температура воздуха - температура, измеренная на высоте 2 м над землей.
Td - Температура точки росы - температура, при понижении до которой содержащийся в воздухе водяной пар достигнет насыщения.
f - Относительная влажность воздуха - влажноcть воздуха, измеренная на высоте 2 м над землей.
Te - Эффективная температура - температура, которую ощущает одетый по сезону человек в тени. Характеристика душности погоды. При расчете учитывается влияние влажности воздуха и скорости ветра на теплоощущения человека.
Tes - Эффективная температура на солнце - температура, которую ощущает человек, с поправкой на солнечный нагрев. Характеристика знойности погоды. Зависит от высоты солнца над горизонтом, облачности и скорости ветра. Ночью, в пасмурную погоду, а также при ветре 12 м/с и более поправка равна нулю.
P - Атмосферное давление - приведенное к уровню моря атмосферное давление.
Po - Атмосферное давление - измеренное на уровне метеостанции атмосферное давление.
Tmin - Минимальная температура - минимум температуры воздуха на высоте 2 м над землей.
Tmax - Максимальная температура - максимум температуры воздуха на высоте 2 м над землей.
R - Количество осадков - Количество выпавших осадков за период времени, мм. При наведении курсора мыши на число - период времени, за который выпало указанное количество осадков.
R24 - Количество осадков - Количество выпавших осадков за 24 часа, мм.
S - Снежный покров - Высота снежного покрова, см. При наведении курсора мыши на число - состояние снежного покрова и степень покрытия местности в баллах.